Terminal Aerodrome Forecast
Issued by NWS Portland, OR

Home | Current Version | Previous Version | Text Only | Print | Product List | Glossary On
Versions: 1 2 3 4 5 6 7 8 9 10 11 12 13 14 15 16 17 18 19 20 21 22 23 24 25 26 27 28 29 30 31 32 33 34 35 36 37 38 39 40 41 42
000
FTUS46 KPQR 231853 AAA
TAFAST
TAF AMD
KAST 231853Z 2319/2418 15007KT P6SM -RA SCT025 BKN050 OVC100
     FM232300 19012KT 6SM -RA BKN025 OVC045
     FM240300 19015G27KT 4SM RA BKN020 OVC030
     FM240900 18010KT 5SM -SHRA BR BKN025 OVC040=

USA.gov is the U.S. government's official web portal to all federal, state and local government web resources and services.